Ana Sayfa
METAR-TAF:

METAR-TAF

Havaalanları :

Mount Airy/Surry County Airport

Mount Airy, Kuzey Carolina, Amerika Birleşik Devletleri

Enlem: 36-27-35N, Boylam: 080-33-11W, yükseklik: 380 m

Güncel hava durumu gözlemi

Rapor saat 07:00 UTC de 29 dakika önce yapıldı.
Sakin rüzgar
Sıcaklık 24°C
Nem 89%
Basınç 1016 hPa
Görüş mesafesi: 16.1 km
Açık gökyüzü

METAR: KMWK 220700Z AUTO 00000KT 10SM CLR 24/22 A3000 RMK AO2 T02360220

Saat: 03:29 (07:29 UTC)


TAF: eksik

4.000'den fazla havaalanı için hava durumu gözlemleri ve tahminleri (METAR ve TAF raporları).

Kullanılabilir istasyonlar harita üzerinde sarı ve kırmızı noktalarla gösterilir.

İstasyonun adını görmek için fareyi noktanın üzerinde gezdirin.

Sonrasında hava gözlem ve tahminlerini görmek için tıklayın.

Haritayı değiştirmek için: yaklaştırmak için siyah artı işaretli yeşil düğmeye ve uzaklaştırmak için de eksi işaretli düğmeye hızla tıklayın; bitişik haritalar için yeşil okları kullanın.


METAR-TAF: